DECAYED

CZ-4 DEB, 26268 (Decayed)

Orbit data source: Space-Track

CZ-4 DEB, 26268 was space debris in SSO originally from a launch on Thu, 14 Oct 1999 UTC launched from the Taiyaun Space Center, China (TSC). Debris objects in space refer to the collection of defunct objects orbiting the Earth. Examples of debris include non-operational satellites, rocket bodies, and fragments generated from explosions, collisions, or faulty payload assembly.

Not visible in the next 10 days
Identifier
26268, 1999-057FE
Orbit
Decayed
Country
Flag of CNCN / PRC
Related business
Manufacturer
Unknown
Mission
Decayed spacecraft
Bus & Motor
Unknown
Mass
Unknown
Launch date (UTC)
1999-10-14 (26 years ago)
Launch vehicle
Unknown
Launch site
Taiyaun Space Center, China (TSC)
Object type
Payload
Rocket body
Debris
Shape & HBR
Unknown shape, 0.1 m
Radar Cross Section
Small (<0.1 m²)

Expand to show TLE details & history
Last TLE update: 9 months ago

TLE from 9 months ago
0 CZ-4 DEB
1 26268U 99057FE  25027.31733089  .02994511  17135-1  51267-2 0  9996
2 26268  98.6415 162.6364 0015391 316.2037  43.8019 16.06623702335737
Epoch: 2025-01-27T07:36Z
TLE epoch observation values (Epoch: 2025-01-27T07:36:57.388Z)
Latitude
-0.00007°
Longitude
-78.44188°
Altitude
251.925 km
Speed
7.76 km/s
True Right ascension
10h 50m 32s
True Declination
0° 00' 00"
Sunlit
Object was in full shadow at epoch
Visualization orbit readout
Latitude
Unknown
Longitude
Unknown
Altitude
Unknown
Speed
Unknown
Apparent Right ascension
Unknown
Apparent Declination
Unknown
Sunlit
N/A
Visualization observer readout
Local Sidereal Time
14:13:58
Azimuth
Unknown
Elevation
Unknown
Doppler factor
Unknown
Orbital elements
Apogee altitude
263.238 km
Perigee altitude
242.826 km
Semi-major axis
6,631.169 km
Eccentricity
0.00154
Inclination
98.6415°
RAAN
162.6364°
Arg. of periapsis
316.2037°
True anomaly
43.92415°
Mean anomaly
43.8019°
Eccentric anomaly
43.86301°
Mean motion
4.01937 °/min
Orbital period
89.57 mins
BSTAR
0.0051267
Loading maneuver chart data...
Computing Atmospheric mass density...
Loading historical data...
Loading historical data...
Loading historical data...
Loading historical data...
Loading historical data...
Loading historical data...
Loading historical data...

Documentation

Showing up to 5 results
|